Погода в Луганском

Украина / Донецкая область     47°53′10″N   37°40′40″E
темп.,
°C
ветер,
м/с
пор.,
м/с
влажн.,
%
обл.,
%
осадки,
мм/ч
давл.,
гПа
погр.,
м
15 мая, сб
сб1500:00+16зюз24660 0.2 101199
03:00+15зсз367569 0.2 1012146
06:00+15с2470100 0.1 101292
09:00+20зюз11453 0.1 1013465
12:00+24юз34335 0.0 10141554
15:00+26юз353286 0.0 10132229
18:00+25ююз333599 0.0 10131690
21:00+20зюз125586 0.0 101346
16 мая, вс
вс1600:00+18ссз226021 0.0 101335
03:00+17ссв37643 0.0 1013152
06:00+16ссв38655 0.0 1013195
09:00+23всв46505 0.0 1012574
12:00+27св56425 0.0 10101580
15:00+29в663919 0.0 10081968
18:00+26вюв684089 0.0 10081192
21:00+22в4115576 0.0 1007671
17 мая, пн
пн1700:00+21в4125610 0.0 1005379
03:00+19вюв514529 0.0 1005414
06:00+17вюв410537 0.0 1005327
09:00+21юв6104913 0.0 1005544
12:00+25ююв695083 0.0 10061023
15:00+24ю6848100 0.0 1006954
18:00+21ю6868100 0.0 1007702
21:00+18ююз51080100 0.0 1008402
18 мая, вт
вт1800:00+15ю4108571 0.0 1009477
03:00+14ю3791100 0.0 1010294
06:00+14юз3689100 0.0 1011243
09:00+19юз576251 0.0 1011849
12:00+22ююз575120 0.3 10101587
15:00+23юз674727 1.3 10101882
18:00+21ююз685886 0.2 10101282
21:00+17ю5118094 0.7 1011541
19 мая, ср
ср1900:00+15ююз411909 0.1 1011385
03:00+14ююз4108889 0.1 1011359
06:00+14юз398966 0.1 1012358
09:00+17юз466899 0.1 1012751
12:00+21зюз355581 0.1 10121422
15:00+17юз5682100 2.3 1012506
18:00+16ссз2291100 4.6 1011213
21:00+15юз1094100 7.1 101288